Location: Barnston
(51.8500°N, 0.4000°E)
Time: 12:16:58
(UTC+00:00)

BlueWalker 3 - Pass Details

Date: 26 September 2023
Orbit: 489 x 504 km, 53.2° (Epoch: 28 November)

Event Time Altitude Azimuth Distance (km) Brightness Sun altitude
Exits shadow 04:53:38 11° 285° (WNW) 1,650 4.0 -9.5°
Maximum altitude 04:57:22 90° 22° (NNE) 509 1.9 -9.0°
Drops below altitude 10° 05:01:15 10° 106° (ESE) 1,717 5.8 -8.4°
Sets 05:03:27 0° 107° (ESE) 2,603 6.9 -8.1°
